Kuchera_Ratio
17.5 17.8 17.9 18.3 18.4 18.5 18.1 17.6 17.3 17.2 17.8 18.0 18.8 18.9 19.1 19.7 20.6 20.9 20.9 21.3 20.8 21.1 21.0 20.7 20.1 19.6 19.2 18.8 18.3 17.9 17.5 17.2 16.0 15.3 15.2 15.4 15.3 15.3 15.3 15.2 15.9 16.0 15.8 16.0 15.6 16.2 16.5 16.7 16.8 16.6 16.2 17.2 17.2 17.2 16.8 16.7 16.5 16.3 16.3 16.5 17.0 17.2 17.8 18.9 20.5 20.4 17.7 14.7 14.7 14.7 14.5 15.1 16.0 15.5 16.1 16.8 16.4 15.6 14.3 15.1 15.6 16.1 16.5 16.7 16.4
18.3 18.4 18.4 18.5 18.7 18.4 18.5 18.5 18.8 19.3 19.6 19.7 20.3 20.2 20.7 21.4 21.7 21.8 22.4 21.8 21.5 21.9 21.8 21.5 21.2 21.1 21.1 20.7 20.2 19.7 19.2 18.5 17.7 17.1 16.9 16.7 16.5 15.8 16.1 16.4 16.7 16.8 16.5 16.7 16.3 16.4 16.7 17.2 17.0 17.0 17.0 17.5 17.5 17.7 17.4 17.4 17.3 17.1 16.9 17.1 17.5 18.1 17.2 19.0 19.7 20.2 20.9 16.8 16.1 14.1 15.6 14.8 17.0 14.8 16.9 16.4 16.7 15.9 16.6 16.2 15.9 16.5 16.7 16.7 16.8
18.6 18.6 18.9 18.9 19.5 20.1 20.3 20.4 20.2 20.5 20.9 21.1 21.5 21.8 22.2 22.6 22.4 22.9 22.8 22.6 22.1 22.1 22.2 22.0 22.1 21.9 21.9 21.6 21.1 20.8 20.4 20.1 19.5 19.1 18.7 18.2 17.8 17.1 16.6 16.8 17.2 17.4 17.4 17.2 16.9 16.9 17.2 17.4 17.5 17.2 17.1 18.0 18.0 17.7 17.4 17.8 17.4 17.7 17.7 17.2 17.8 17.7 17.6 17.6 19.0 20.2 20.2 19.2 16.2 16.4 16.2 16.3 17.2 16.8 16.2 16.4 17.0 16.3 17.5 17.2 17.3 16.9 16.9 16.9 17.1
19.0 19.1 19.1 20.3 21.2 21.4 21.7 21.3 21.5 21.6 22.2 22.2 22.9 23.2 23.4 23.4 23.1 23.2 23.2 23.3 23.9 23.3 22.8 22.8 22.9 22.9 23.1 22.7 22.4 22.1 21.7 21.2 20.8 20.1 19.7 19.3 18.8 18.1 17.2 16.9 17.0 17.6 17.7 17.7 17.4 17.0 17.2 17.6 17.6 17.3 17.3 18.0 18.2 17.8 17.3 17.4 17.7 18.0 18.2 17.9 17.8 18.1 17.5 17.2 17.7 19.1 19.3 20.2 17.7 17.2 16.1 17.4 17.2 16.5 17.2 17.5 18.2 18.8 18.2 17.8 17.1 17.4 17.5 17.4 17.3
19.7 19.5 20.7 22.2 22.3 22.7 22.7 22.3 22.6 22.8 23.2 23.5 24.1 24.1 24.2 24.1 23.7 23.8 24.0 24.4 24.3 24.2 24.2 23.6 23.7 23.6 23.7 23.4 23.2 22.8 22.1 21.4 20.8 20.2 19.2 18.2 17.7 17.4 17.1 17.0 17.0 17.3 17.5 17.4 16.5 16.9 17.0 17.4 17.4 17.3 17.4 18.0 18.1 18.1 17.4 18.0 18.0 18.4 18.7 18.2 17.9 17.8 17.7 17.6 18.0 18.0 19.4 20.1 18.9 16.8 16.2 17.3 17.0 16.7 16.8 18.8 19.9 20.0 20.2 20.3 18.8 18.7 18.6 17.8 17.5
19.7 21.1 22.2 23.3 23.8 23.8 23.6 23.3 23.6 23.9 24.2 24.5 24.7 24.7 24.8 24.8 24.8 24.7 24.7 25.3 25.2 24.9 24.9 24.7 24.2 24.2 23.8 23.4 23.0 22.3 21.3 20.7 20.7 20.3 19.8 19.5 19.4 18.9 18.0 17.3 17.2 17.3 17.4 17.3 16.9 16.5 16.9 17.2 17.2 17.3 17.7 18.3 18.2 17.7 17.8 18.5 18.7 18.8 18.7 18.4 18.2 18.0 18.2 18.2 17.9 18.3 19.1 19.5 19.1 18.8 17.1 17.7 18.4 18.5 17.9 18.5 19.5 20.4 20.6 20.5 20.3 20.4 20.2 19.7 18.4
20.6 22.7 23.3 24.1 24.6 24.6 24.3 24.3 24.5 24.8 24.9 25.1 25.1 25.3 25.5 25.6 25.7 25.9 25.6 25.8 26.0 26.0 25.5 25.3 24.8 24.6 24.3 23.8 23.5 23.0 22.8 22.7 22.5 22.0 21.5 20.8 20.5 20.0 19.2 18.5 17.9 17.8 17.7 17.5 17.1 16.7 16.8 17.1 17.4 17.3 17.8 18.0 18.2 18.2 18.4 18.7 18.9 19.2 18.8 18.8 18.3 18.5 18.9 18.9 18.7 19.1 19.4 19.9 19.5 18.8 18.5 17.3 17.5 18.6 18.0 18.2 19.0 19.7 20.9 21.2 21.3 20.8 20.5 20.6 20.1
22.4 23.6 24.3 25.0 25.2 25.2 24.9 24.9 25.1 25.3 25.2 25.4 25.7 25.9 26.1 26.2 26.3 26.2 26.2 26.5 26.5 26.3 26.2 26.0 25.4 24.9 24.7 24.3 23.9 23.7 23.7 23.7 23.2 22.5 21.8 21.3 20.8 20.2 19.5 18.9 18.6 18.2 17.9 17.7 17.4 17.3 17.2 17.2 17.3 17.4 17.7 17.9 18.1 18.1 18.5 19.0 18.6 19.1 18.9 19.1 18.9 19.1 19.7 19.7 19.8 19.8 20.2 20.2 20.1 20.1 18.9 18.7 18.3 18.3 18.4 19.2 20.8 21.4 21.0 21.4 21.9 21.6 21.0 20.8 20.3
23.8 24.4 25.1 25.7 25.8 25.6 25.4 25.4 25.5 25.8 26.0 26.3 26.7 26.8 26.8 26.8 26.9 26.9 27.0 26.9 26.7 26.4 26.3 26.2 26.3 25.8 25.1 24.9 24.8 24.3 24.3 24.0 23.3 22.9 22.6 21.5 20.7 20.5 19.7 19.0 18.6 18.5 18.2 17.8 17.6 17.7 17.8 17.8 17.6 17.7 17.5 16.7 16.3 16.6 17.2 17.2 18.9 19.8 20.0 19.7 19.5 19.6 19.9 20.5 20.6 20.7 21.1 20.8 20.5 19.2 19.3 19.5 18.9 18.9 20.0 21.5 21.7 21.2 20.3 21.4 22.0 21.2 21.1 21.2 20.2
24.3 25.2 25.8 26.1 26.0 25.9 26.1 26.2 26.6 26.7 27.0 27.3 27.4 27.4 27.5 27.6 27.8 27.9 27.7 27.6 27.6 27.2 27.2 26.7 26.6 26.6 26.5 26.0 25.4 25.1 24.9 24.2 22.7 19.6 18.1 19.0 18.7 18.4 18.3 18.2 18.2 18.3 18.5 18.6 18.2 17.9 18.2 18.5 18.3 16.7 16.6 16.2 16.2 16.1 15.9 15.7 15.9 17.7 19.3 19.9 19.7 20.1 20.6 20.9 21.4 21.3 20.8 21.0 20.9 20.5 21.0 20.8 19.9 19.1 19.5 19.3 19.6 20.0 21.1 21.6 22.0 21.7 21.7 21.7 20.7
24.9 25.9 26.6 26.2 26.3 26.5 26.9 27.3 27.2 28.0 27.7 27.8 27.9 28.2 28.3 28.6 28.7 28.6 28.5 28.3 28.3 27.9 27.4 27.7 27.6 26.9 26.7 26.6 26.5 25.9 25.1 24.2 20.2 18.1 17.1 16.1 17.5 18.3 18.1 17.8 17.5 17.8 18.1 18.6 19.0 18.7 18.7 18.8 19.1 17.8 16.8 16.5 16.7 16.0 15.8 15.3 14.8 14.8 15.2 16.6 17.5 19.5 21.0 21.2 21.2 20.9 21.5 21.6 20.6 20.6 20.8 20.8 19.9 18.7 18.9 18.9 20.0 20.3 20.9 21.3 22.0 22.1 22.3 22.5 24.0
25.8 26.7 26.7 26.8 27.0 27.4 27.8 28.0 28.5 28.7 28.6 28.7 28.7 29.2 29.2 29.5 29.7 29.5 29.5 29.2 28.6 28.3 28.5 28.2 27.8 27.4 27.2 26.9 26.7 26.1 25.4 21.9 18.9 18.0 17.2 16.5 16.2 17.8 17.9 18.0 17.8 17.8 18.0 18.5 18.7 18.8 19.1 19.4 19.5 19.3 18.7 18.2 18.2 17.7 16.7 15.7 15.3 15.1 14.7 14.9 15.2 15.4 16.0 18.7 20.3 21.0 21.1 21.7 21.5 21.2 20.8 21.0 20.4 19.9 20.2 20.6 21.3 21.3 21.4 21.7 22.1 22.2 22.5 22.8 22.4
26.6 27.1 27.1 27.5 27.9 28.1 28.4 28.9 29.2 29.4 29.6 29.6 29.7 29.8 30.2 30.2 30.5 30.4 30.4 29.6 29.0 29.2 28.6 28.1 28.4 27.8 27.4 27.4 27.1 26.2 25.7 21.3 19.0 18.0 17.4 16.5 15.7 16.1 17.4 17.6 17.7 17.8 18.1 18.5 19.0 19.2 19.2 19.5 20.1 19.9 19.6 17.6 17.6 18.4 19.0 18.4 16.4 15.6 15.5 15.2 14.9 14.4 14.7 14.7 15.2 18.1 19.2 20.2 21.1 21.1 20.8 20.4 20.8 20.4 19.8 20.6 20.2 21.7 21.9 22.0 22.0 22.0 22.2 22.5 22.2
27.1 27.7 27.9 28.2 28.5 28.8 29.1 29.4 29.9 30.0 29.8 30.1 30.4 30.7 31.0 31.2 30.8 30.3 30.0 29.6 29.5 29.3 29.0 28.6 28.0 28.2 27.8 27.6 27.2 26.3 25.2 21.4 18.9 18.0 17.4 16.6 15.9 16.0 17.8 17.8 17.7 17.9 18.3 18.7 19.1 19.4 19.4 19.5 19.9 20.3 20.1 19.5 18.7 18.9 19.5 19.9 19.9 19.4 18.8 18.5 18.8 17.8 16.2 15.0 15.2 15.4 16.3 18.8 19.8 20.7 19.6 19.2 20.2 19.3 19.0 18.8 21.1 21.7 21.7 21.7 21.6 21.7 21.8 21.9 21.7
27.9 28.1 28.7 28.9 29.1 29.5 29.7 29.9 30.3 30.3 30.5 30.7 31.1 31.2 31.3 31.5 30.9 30.6 30.5 30.1 29.9 29.9 29.4 29.2 28.6 28.0 27.9 27.4 26.7 25.5 24.2 20.0 19.0 18.3 17.6 17.0 16.3 16.3 18.0 18.1 18.2 18.5 18.5 18.6 19.2 19.5 19.6 19.2 19.3 19.7 19.8 20.2 19.7 19.0 20.1 20.3 20.8 21.2 21.3 21.2 21.1 20.7 19.9 19.6 19.3 18.9 18.5 17.7 18.6 19.1 18.9 18.7 18.7 18.4 19.3 19.5 19.7 20.1 21.2 21.2 21.2 21.6 21.8 21.7 21.8
28.5 28.7 29.5 29.6 29.9 29.7 30.0 30.5 30.7 31.1 31.1 31.4 31.5 31.5 31.6 31.7 31.7 30.8 30.6 30.2 29.5 29.0 28.8 28.6 28.7 28.5 27.5 26.8 25.8 25.1 24.7 20.3 19.4 18.6 17.9 17.3 16.7 18.4 18.8 19.0 19.1 19.0 18.9 18.7 18.8 19.3 19.4 19.3 19.4 19.6 19.7 20.0 19.1 16.5 17.5 19.8 20.9 22.2 22.7 22.4 22.1 21.7 21.2 18.7 16.8 16.5 17.3 17.6 17.5 18.2 18.4 18.2 16.8 18.3 18.8 20.2 20.4 21.1 21.3 21.6 21.6 22.0 22.4 22.6 22.8
29.3 29.6 30.1 30.1 30.2 30.3 30.3 30.8 31.5 31.7 31.8 31.9 31.8 31.9 32.2 32.0 31.7 30.8 31.1 30.3 29.8 29.6 29.6 29.2 28.4 28.0 26.9 25.7 26.1 26.6 26.2 22.6 19.7 18.8 18.3 17.5 18.1 19.8 19.5 19.5 19.6 19.7 19.5 19.1 19.0 19.0 19.0 19.0 19.3 19.7 19.8 20.2 18.5 16.5 15.8 16.8 21.1 21.7 22.5 23.1 22.9 22.7 22.1 20.3 17.2 15.3 14.7 14.2 14.1 14.2 14.6 14.7 14.3 14.2 14.4 14.9 18.7 21.0 21.6 22.2 22.1 22.5 23.1 25.2 23.7
29.7 30.1 30.5 30.4 30.5 30.6 30.8 31.3 32.0 32.2 32.4 32.5 32.5 32.4 32.0 31.7 31.6 30.6 30.9 30.7 30.2 29.7 29.4 29.1 28.1 26.8 26.5 27.1 27.1 27.1 26.2 23.2 20.0 19.2 18.5 18.0 18.3 20.2 20.2 20.4 20.6 20.3 20.2 19.9 20.2 20.0 19.3 17.7 18.3 19.8 20.1 20.3 17.6 16.2 15.8 16.6 19.6 21.4 21.8 22.3 23.1 23.5 22.7 21.2 20.6 19.6 16.2 14.9 14.2 13.7 13.9 13.8 13.7 13.5 13.3 13.5 14.0 17.7 21.2 21.6 21.7 22.5 23.5 23.8 24.5
30.4 30.7 30.7 30.4 30.7 30.9 31.2 31.7 32.2 32.7 32.7 32.9 33.0 33.1 32.7 32.2 31.3 30.5 30.2 30.0 29.8 29.4 28.9 28.6 28.0 27.4 27.4 27.4 25.5 25.8 26.2 24.4 21.1 19.9 19.0 18.3 19.2 20.3 20.3 20.8 21.2 21.0 20.8 21.0 20.3 20.0 20.0 18.6 17.6 18.5 19.7 19.3 16.9 16.3 15.8 16.7 18.7 19.5 20.8 21.8 22.6 22.9 22.2 21.4 21.6 21.7 21.4 21.1 20.3 19.2 18.2 16.6 15.7 15.1 14.9 13.3 13.0 15.3 19.7 20.0 20.7 21.4 22.4 23.3 23.4
30.0 30.3 30.5 30.7 31.0 31.2 31.5 32.1 32.5 33.0 33.0 33.2 33.0 32.8 32.1 31.8 31.3 30.7 30.3 29.8 29.9 29.5 29.0 28.7 29.0 28.6 27.7 27.3 26.8 26.2 26.2 25.7 24.1 20.0 19.2 18.5 17.9 19.9 20.4 21.3 22.0 21.7 21.5 21.8 22.2 21.6 20.8 20.8 19.2 17.0 16.7 16.7 16.7 16.2 16.1 15.6 18.0 18.9 19.4 21.1 22.0 22.4 20.6 21.1 21.0 21.2 21.5 21.2 21.0 19.8 19.2 18.0 17.4 16.5 16.0 15.5 14.9 14.9 17.8 18.5 18.8 19.1 20.0 21.0 21.9
30.3 30.7 30.9 31.2 31.5 31.7 31.8 32.5 33.0 33.1 32.9 33.2 32.7 32.5 32.1 31.7 31.1 30.8 30.8 30.3 30.3 30.1 29.8 29.4 29.2 28.8 27.8 27.0 26.6 26.1 25.4 25.2 24.3 19.8 19.3 18.9 18.2 18.7 20.9 21.3 21.5 21.9 22.0 21.4 21.4 22.0 22.0 21.6 21.3 19.0 17.0 16.2 16.0 16.0 15.6 15.5 15.9 18.0 19.1 20.2 20.2 19.5 18.7 21.3 20.3 18.8 20.9 21.1 21.0 20.5 19.7 19.0 18.7 18.9 18.4 17.8 17.7 17.1 16.9 17.2 17.4 17.7 18.2 19.4 20.7
30.7 31.1 31.3 31.7 32.0 32.3 32.7 32.7 32.7 33.0 33.0 32.9 33.3 33.0 32.0 31.2 30.9 30.8 30.8 30.9 31.0 30.8 30.2 29.5 29.3 28.7 27.8 27.0 26.6 26.1 24.7 23.6 24.4 21.7 19.4 19.2 18.7 18.3 20.4 21.1 20.5 21.4 21.9 22.0 21.7 21.9 21.7 21.4 21.8 20.1 18.0 16.7 16.0 15.5 15.4 15.4 15.2 17.1 18.0 16.6 16.1 15.9 17.8 19.3 20.4 20.2 20.3 20.5 20.8 20.9 20.6 20.1 20.3 21.0 20.6 20.1 19.6 19.1 18.2 17.3 17.2 17.2 17.2 17.2 18.3
31.0 31.5 32.1 32.6 32.8 33.0 33.0 33.2 33.3 33.1 33.1 32.8 33.0 33.1 32.0 31.7 31.4 31.0 31.4 31.4 31.4 31.3 30.7 30.0 29.5 28.9 28.2 27.1 26.3 25.8 24.9 24.0 22.3 22.7 20.7 19.4 18.8 18.6 18.4 19.3 18.2 19.4 20.9 21.6 21.4 21.2 20.8 21.0 20.4 18.7 17.7 16.8 16.3 15.9 15.6 15.3 15.6 16.6 15.1 14.8 15.0 15.2 16.3 18.4 19.8 20.5 20.7 20.3 20.2 20.9 20.7 20.6 20.4 20.4 20.8 21.2 20.7 20.2 20.0 19.1 18.0 17.7 17.8 17.1 16.9
31.7 32.6 33.0 33.1 33.3 33.5 33.5 33.5 33.4 33.2 33.2 32.9 32.7 32.8 32.6 32.1 31.7 31.4 31.3 31.4 31.6 31.4 30.6 29.8 29.3 29.2 28.8 27.9 26.6 25.4 24.2 23.0 21.7 21.2 21.7 19.9 19.1 18.6 18.4 18.2 18.1 19.7 20.0 20.9 20.7 20.6 20.9 20.9 20.4 18.0 17.1 16.7 16.2 16.0 15.8 15.7 16.9 15.6 15.0 14.8 15.0 15.3 16.8 18.2 19.5 20.2 20.2 20.3 20.3 20.3 20.4 19.8 19.8 20.1 20.1 20.1 20.0 20.1 19.7 19.6 19.6 19.6 18.5 17.9 17.2
32.8 33.5 33.7 33.7 33.8 33.8 33.8 33.7 33.6 33.6 33.1 32.8 33.2 32.9 32.9 32.3 32.4 31.7 31.6 31.6 31.4 31.2 30.4 29.4 29.3 29.1 28.6 27.8 26.4 24.8 23.1 22.2 22.2 21.8 21.1 21.1 19.6 18.8 18.5 18.3 18.3 18.5 20.0 20.2 19.7 19.8 18.9 17.7 17.5 17.0 16.7 16.3 16.0 15.9 16.1 16.1 15.4 15.3 15.4 15.6 15.6 16.9 17.5 18.2 19.0 19.8 20.5 20.6 20.2 19.9 19.8 19.5 19.6 19.3 19.0 19.0 19.6 20.0 19.9 19.9 19.9 19.9 18.8 17.9 17.4
33.7 33.9 33.9 34.0 34.2 34.0 34.0 34.0 33.9 33.5 33.2 33.0 33.1 32.8 32.8 32.5 32.5 32.2 31.7 31.5 30.9 30.4 29.7 29.1 29.1 28.6 27.9 26.5 25.2 23.8 23.1 22.9 22.6 22.2 22.0 22.0 21.5 20.4 19.4 19.3 19.4 19.0 19.1 19.7 18.8 18.0 17.2 16.9 16.5 16.4 16.6 16.8 17.6 18.3 18.9 18.6 17.0 16.4 16.1 15.8 17.0 17.4 17.7 18.0 18.5 19.5 20.3 20.0 19.7 19.8 19.6 19.2 19.4 19.2 19.1 19.1 20.1 20.2 19.9 19.9 20.0 20.2 20.7 19.9 19.2
33.9 34.0 34.4 34.4 34.3 34.4 34.5 34.4 33.8 33.4 33.5 33.4 33.0 32.6 32.2 32.3 32.3 32.1 31.6 31.2 30.3 29.6 29.4 29.2 28.9 27.9 26.8 25.6 24.6 24.2 24.1 23.5 22.8 22.1 21.3 22.5 22.7 22.2 22.2 22.4 20.6 20.0 20.8 21.0 20.1 20.2 19.3 18.4 18.2 17.5 17.5 16.9 16.9 17.1 17.6 17.3 17.9 17.9 17.9 17.6 17.4 17.5 17.5 17.7 18.0 18.8 19.3 19.7 19.7 19.4 19.2 19.0 18.5 18.9 20.1 20.0 20.2 20.2 20.0 20.1 20.1 20.2 20.6 19.9 19.6
34.2 34.6 34.8 34.7 34.7 34.6 34.7 33.3 33.5 34.2 33.9 33.7 33.9 33.4 32.7 32.2 32.3 31.9 31.2 30.3 29.9 29.6 29.4 29.0 28.0 27.0 26.5 25.3 24.9 24.9 24.6 23.8 23.0 22.2 20.9 21.0 22.4 22.2 22.1 22.3 22.7 23.3 23.5 23.2 22.6 21.3 20.5 19.0 18.5 18.8 19.2 19.5 19.4 19.7 19.4 18.9 18.8 18.8 18.8 18.4 18.0 17.6 16.9 16.1 16.2 17.7 18.2 18.4 18.9 18.8 19.1 19.0 19.3 19.2 19.4 20.0 19.9 20.2 20.3 20.3 20.2 19.9 19.8 19.2 19.8
34.2 35.0 34.9 34.9 35.0 34.3 34.4 34.4 34.4 34.4 34.4 33.9 33.4 32.9 32.9 32.3 31.4 30.6 28.6 28.1 28.3 28.7 28.6 27.6 26.2 25.7 25.7 25.4 25.5 25.7 24.8 24.3 22.7 19.6 19.5 18.0 19.0 19.2 20.0 21.3 22.0 22.2 21.7 20.9 21.7 21.4 20.7 20.7 21.1 20.8 21.1 21.1 21.3 21.2 20.9 20.6 19.8 19.0 18.7 18.6 18.2 18.1 18.1 18.1 18.3 18.4 17.9 18.3 19.0 19.1 19.2 19.0 19.0 18.7 19.2 19.7 19.9 20.2 20.5 20.5 20.3 20.2 19.9 19.0 19.8
35.1 35.2 35.2 35.3 35.2 34.9 34.7 34.7 34.8 34.6 34.7 34.7 34.0 33.1 30.2 28.4 28.7 29.4 29.5 27.2 26.4 24.6 25.2 26.6 25.6 25.4 25.5 24.7 24.2 25.0 24.8 23.1 19.4 18.3 18.0 17.7 17.6 17.8 17.5 17.0 17.6 20.6 20.5 19.2 19.7 21.7 21.5 21.8 21.6 21.5 21.4 21.7 21.8 21.8 21.9 21.7 21.5 21.3 20.7 18.7 18.9 18.9 19.0 18.7 18.3 18.0 17.8 18.1 18.3 18.9 19.0 18.7 19.0 19.0 19.0 19.1 19.2 19.6 19.7 19.2 20.5 19.6 19.9 19.9 20.0
35.4 35.4 35.4 35.4 35.1 34.7 34.9 35.2 35.1 35.2 34.8 34.5 34.1 33.9 33.7 31.8 27.3 26.0 27.6 27.5 26.5 27.3 25.2 25.1 24.3 25.0 24.7 25.7 24.1 22.4 21.7 20.9 19.2 18.9 18.7 18.4 17.6 17.7 17.5 17.3 17.2 17.1 18.4 19.5 21.0 22.1 22.7 22.7 22.6 22.1 21.9 21.8 22.3 22.7 22.7 22.7 22.7 22.8 22.9 22.7 22.2 21.6 21.2 20.9 20.5 20.1 20.0 19.1 19.1 18.7 18.9 19.1 19.7 19.7 19.5 19.2 19.1 19.2 19.0 18.2 19.0 19.3 19.4 19.6 20.2
36.0 35.7 35.6 35.5 35.0 34.7 35.2 35.4 35.3 35.4 35.1 34.6 34.3 34.3 34.4 34.6 33.7 30.4 26.7 27.2 25.5 26.2 24.5 25.7 25.6 25.2 24.9 24.5 25.1 25.0 22.6 21.6 21.1 19.7 19.4 19.4 19.0 18.6 18.3 17.9 17.8 18.0 18.0 18.5 22.2 23.1 22.9 23.2 23.5 23.6 23.3 23.9 24.1 23.9 23.9 24.0 23.9 23.6 23.3 23.4 23.2 22.8 22.4 22.2 21.8 21.2 20.9 21.0 21.0 20.8 20.8 20.6 20.5 20.5 20.5 20.3 20.0 20.2 19.7 19.2 19.1 19.4 19.3 19.3 19.7
36.1 35.9 35.9 35.4 35.2 35.0 35.3 35.9 35.7 35.6 35.4 35.0 34.8 34.4 34.7 35.1 35.7 35.0 32.2 27.0 26.2 27.2 25.8 25.0 26.0 25.8 24.7 23.9 23.5 23.8 23.0 22.3 20.7 20.5 20.0 20.2 20.0 20.2 20.0 19.4 19.2 20.0 21.9 24.3 25.2 25.7 25.7 25.9 26.4 26.4 26.0 25.9 25.7 25.3 24.6 24.2 23.9 23.5 23.6 23.7 23.7 23.4 23.1 22.9 22.5 22.0 21.7 21.8 21.6 21.5 21.5 21.2 21.0 21.0 20.8 20.6 20.6 20.5 20.4 20.3 20.4 19.7 18.8 19.2 19.2
36.0 36.0 35.7 35.3 35.7 36.0 36.2 36.2 36.1 35.6 35.0 34.9 34.6 34.4 34.5 34.8 35.1 34.8 34.7 34.2 33.0 30.6 28.5 27.2 26.4 26.2 25.8 24.9 23.7 23.6 22.5 22.3 21.8 21.3 21.3 21.4 21.2 21.8 22.6 23.6 21.5 21.4 24.1 27.4 27.5 28.0 27.5 27.3 27.4 27.4 27.2 27.2 26.8 26.3 25.7 25.2 24.6 24.2 24.2 24.3 24.2 23.8 23.5 23.2 22.8 22.5 22.5 22.4 22.2 22.1 22.1 22.0 21.8 21.7 21.5 21.3 21.2 21.1 21.0 20.9 20.8 20.7 20.7 20.7 20.2
35.9 35.2 34.3 34.5 35.9 36.2 36.2 36.0 35.8 35.4 35.0 34.7 34.7 34.6 34.9 34.5 34.2 34.4 34.7 35.2 35.2 34.9 34.1 32.3 29.5 28.3 29.3 28.3 26.9 24.9 23.4 23.2 22.6 22.3 22.0 21.9 23.0 23.9 24.8 28.4 28.6 28.5 28.3 28.3 28.5 28.8 28.9 28.8 28.7 28.5 28.3 28.0 27.5 27.3 27.0 26.7 26.3 25.9 25.6 25.3 25.0 24.7 24.3 24.0 23.7 23.6 23.4 23.2 23.1 23.1 23.0 22.9 22.9 22.7 22.4 22.3 22.1 21.9 21.7 21.6 21.5 21.5 21.4 21.2 21.2
35.9 35.9 36.0 36.1 36.1 36.1 36.1 35.9 35.5 35.5 35.2 34.8 34.3 34.5 34.5 34.7 34.8 34.7 34.4 34.5 34.8 35.0 34.2 33.6 32.8 30.4 29.3 29.0 28.1 26.4 24.9 24.3 23.8 23.4 22.9 23.2 24.2 26.3 30.6 30.1 30.0 29.9 29.7 29.5 29.5 29.4 29.4 29.5 29.3 29.2 29.1 28.9 28.7 28.6 28.1 27.9 27.8 27.5 27.2 26.8 26.4 26.1 25.8 25.4 25.1 24.8 24.6 24.3 24.2 24.2 24.0 23.8 23.7 23.6 23.4 23.3 23.2 22.8 22.5 22.3 22.3 22.3 22.2 21.9 21.7
36.0 36.0 36.1 36.2 36.0 35.8 35.7 35.7 35.7 34.9 33.6 33.8 34.6 35.3 35.2 34.9 34.6 34.8 35.2 35.5 35.1 34.6 34.7 34.3 33.7 33.3 31.6 31.0 29.3 27.7 26.2 25.7 24.2 24.1 24.3 24.7 25.1 29.1 31.2 31.2 31.4 31.2 31.0 30.9 30.3 30.2 30.3 30.3 30.0 30.1 30.0 29.7 29.5 29.3 29.0 28.9 28.8 28.6 28.3 28.1 27.8 27.6 27.5 27.1 26.7 26.5 26.2 25.9 25.7 25.5 25.3 25.1 24.9 24.6 24.4 24.3 24.2 23.9 23.6 23.2 23.1 22.9 22.8 22.6 21.3
36.0 36.1 36.2 35.8 35.6 35.5 36.0 36.2 35.4 33.8 34.7 35.0 35.4 35.7 35.7 35.6 35.4 35.4 35.7 36.0 35.2 35.2 35.6 35.1 33.8 35.4 35.6 34.2 30.1 29.6 29.3 28.1 27.2 27.2 27.3 28.0 30.0 31.2 31.5 31.7 31.5 32.0 31.8 31.4 30.8 30.7 30.9 30.5 30.4 30.5 30.5 30.3 30.4 30.2 29.9 29.6 29.4 29.2 29.2 29.0 28.7 28.6 25.8 27.7 28.2 28.1 27.8 27.6 27.3 27.1 26.8 26.7 26.3 26.0 25.7 25.3 25.1 24.8 24.4 24.0 23.7 23.5 23.3 23.1 22.9
36.0 35.1 34.3 34.2 34.2 35.4 35.9 35.7 35.4 35.5 35.7 35.6 35.9 35.8 35.7 35.8 36.0 36.3 36.6 36.7 36.5 36.2 35.5 35.8 36.0 35.8 35.5 33.7 32.5 30.3 30.5 32.2 32.3 31.9 31.1 31.0 30.9 31.2 31.8 32.0 32.3 32.3 32.0 32.0 31.4 31.1 31.1 31.1 30.7 30.5 30.5 30.5 30.3 30.3 30.2 30.4 30.3 30.1 30.0 29.9 29.5 29.2 29.2 29.3 29.1 29.0 28.8 28.7 28.6 28.3 28.1 27.9 27.5 27.2 26.9 26.4 26.0 25.7 25.3 24.9 24.5 24.3 24.0 23.7 23.4
36.2 36.1 35.7 34.3 35.3 35.4 35.3 35.6 35.6 36.1 36.0 36.2 36.5 36.2 36.3 36.4 36.6 36.7 36.9 37.1 37.1 36.5 36.4 36.2 36.3 36.2 35.0 33.4 32.6 31.7 33.1 33.6 33.2 32.5 31.8 31.6 31.8 31.8 32.0 32.5 32.6 32.7 32.7 32.6 32.2 31.8 31.4 31.3 31.1 31.2 31.2 31.0 30.8 30.6 30.2 30.0 30.1 30.0 30.4 30.4 30.3 30.2 30.0 29.8 29.7 29.6 29.5 29.3 29.2 29.1 29.0 28.9 28.5 28.2 27.8 27.5 27.2 26.8 26.4 26.0 25.6 25.2 24.9 24.5 24.1
36.4 36.2 35.3 35.1 35.1 35.9 36.2 36.1 36.5 36.6 36.6 36.5 36.5 36.8 36.9 36.1 36.2 36.3 36.9 37.0 36.9 36.7 36.5 36.5 36.6 36.0 34.4 32.6 31.2 30.9 33.2 34.2 33.6 33.0 32.4 31.8 32.0 32.3 32.4 32.4 32.4 32.7 32.5 32.6 32.5 32.2 31.8 31.7 31.7 31.7 31.6 31.5 31.2 31.2 30.8 30.6 30.3 30.1 30.2 30.1 30.2 30.4 30.6 30.5 30.4 30.2 30.0 29.8 29.6 29.6 29.6 29.6 29.6 29.2 28.8 28.6 26.9 28.0 27.5 27.0 26.6 26.2 25.8 25.4 25.0
36.3 36.4 36.3 36.5 36.2 36.8 37.0 36.8 36.7 36.0 36.8 36.7 37.0 36.9 36.4 36.4 36.5 36.7 36.7 36.8 36.7 36.6 36.8 36.7 36.7 35.9 34.0 32.4 32.3 31.2 33.3 34.2 33.4 33.2 32.8 32.2 32.3 32.5 32.2 32.2 32.1 32.3 32.5 32.7 32.6 32.6 32.2 31.8 31.7 31.8 32.0 31.9 31.9 31.7 31.5 31.8 31.2 30.8 30.6 30.6 30.7 31.1 31.5 31.3 31.1 30.7 30.4 30.2 30.1 30.0 29.9 29.9 29.7 28.9 29.0 27.0 28.9 28.7 28.5 28.1 27.7 27.2 26.8 26.3 25.9
35.9 36.0 36.4 36.4 36.9 37.1 37.3 37.3 37.1 37.5 37.5 37.6 37.3 36.1 36.1 36.6 37.2 37.0 37.2 37.0 36.9 36.7 36.9 37.2 37.0 36.2 35.6 33.8 33.7 33.0 34.5 34.7 33.7 33.7 33.4 33.2 32.9 32.6 32.7 32.6 32.2 32.1 32.0 32.0 31.9 32.1 32.2 32.2 32.0 31.9 31.9 32.1 32.0 32.1 32.2 32.4 32.0 31.4 31.0 31.1 31.5 31.9 32.2 32.0 31.7 31.3 31.0 30.7 30.5 30.3 30.1 29.9 29.8 29.6 29.4 29.2 29.1 28.9 28.7 28.6 28.4 28.1 27.7 27.2 26.7
35.9 36.3 36.6 36.7 36.9 37.1 37.0 37.6 37.7 37.4 37.6 36.6 36.2 36.6 36.9 37.4 37.7 37.9 38.0 37.9 37.6 37.2 37.2 37.3 36.9 36.9 36.8 36.1 35.4 35.5 35.9 35.4 34.9 34.5 34.0 33.8 33.8 33.3 33.1 32.9 32.5 32.3 32.0 31.9 31.9 31.9 32.1 32.4 32.4 32.1 31.7 31.7 31.7 31.7 31.8 31.9 32.1 32.2 31.9 31.4 31.6 32.1 32.7 32.4 32.2 32.0 31.6 31.3 31.0 30.7 30.4 30.2 30.0 29.8 29.6 29.4 29.2 29.1 29.0 28.9 28.7 28.5 28.2 27.9 27.6
36.9 36.9 37.0 37.1 37.2 37.2 37.4 37.6 37.7 37.8 37.1 37.5 38.0 38.1 37.9 38.5 38.6 38.4 38.0 38.2 37.5 37.3 37.4 37.2 37.1 37.2 37.2 37.5 37.4 37.0 36.7 36.2 35.0 34.6 34.5 34.5 34.5 34.1 33.7 33.5 33.3 33.0 32.5 32.2 32.1 32.2 32.4 32.6 32.7 32.7 32.7 32.2 31.8 31.9 31.8 31.9 32.1 32.4 32.5 32.6 33.2 33.3 33.0 32.8 32.6 32.4 32.1 31.9 31.5 31.2 30.9 30.6 30.4 30.1 29.9 29.7 29.5 29.4 29.3 29.1 29.0 28.7 28.6 28.3 28.1
36.2 36.9 37.2 37.3 37.4 37.4 37.5 37.8 37.4 38.1 38.2 38.3 38.2 38.2 38.4 38.5 38.6 38.7 38.1 38.0 37.8 37.8 37.8 37.7 37.7 37.5 37.6 38.0 37.5 36.9 37.0 36.6 36.2 35.3 34.7 34.8 34.7 34.7 34.2 34.1 33.8 33.6 33.1 32.6 32.2 32.3 32.5 32.6 32.9 33.2 33.1 32.8 32.4 32.2 32.1 32.2 32.2 32.5 32.8 33.2 33.5 33.6 33.3 33.1 32.9 32.7 32.5 32.2 31.9 31.5 31.2 31.0 30.8 30.5 30.4 30.2 29.9 29.7 29.6 29.5 29.3 29.1 28.9 28.6 28.3
36.4 37.0 37.0 37.3 37.6 37.6 37.8 37.5 38.1 38.3 38.4 38.5 38.5 38.5 38.5 38.6 38.8 38.4 38.1 38.0 38.0 37.7 38.2 38.3 38.2 38.4 38.3 38.3 38.2 38.0 37.0 36.7 36.6 36.1 35.7 35.3 35.1 35.0 34.7 34.5 34.2 34.2 33.8 33.0 32.7 32.7 32.8 32.9 33.1 33.2 33.3 33.1 32.8 32.7 32.5 32.7 32.9 33.1 33.3 33.5 33.5 33.4 33.6 33.4 33.2 33.0 32.7 32.5 32.1 31.8 31.5 31.3 31.1 30.9 30.7 30.5 30.3 30.2 30.0 29.8 29.6 29.4 29.1 28.9 28.6
36.2 36.7 37.0 37.1 37.5 38.0 38.1 38.3 38.5 37.6 38.5 38.7 38.8 38.8 38.8 38.8 38.9 39.0 39.0 39.1 39.2 39.0 38.9 38.8 38.8 38.6 38.1 38.3 37.8 37.6 37.3 37.1 36.6 36.1 35.8 35.7 35.5 35.2 35.0 34.9 34.7 34.6 34.2 33.9 33.7 33.4 33.2 33.2 33.2 33.3 33.3 33.3 33.3 33.3 33.1 32.8 33.1 33.5 33.7 33.4 33.1 33.0 32.9 33.3 33.5 33.2 33.0 32.7 32.4 32.1 31.8 31.5 31.3 31.1 30.9 30.7 30.6 30.5 30.4 30.1 29.9 29.7 29.4 29.2 29.0
36.1 36.6 37.1 37.3 37.6 37.7 38.0 38.4 38.4 38.8 39.0 39.0 39.0 39.0 39.0 39.0 39.0 39.1 39.1 39.2 39.3 39.4 39.5 39.5 39.2 38.7 38.7 38.3 37.7 37.7 37.5 37.1 37.5 37.2 36.8 36.3 35.9 35.6 35.3 35.0 34.8 34.8 34.7 34.7 34.4 34.2 33.9 33.8 33.6 33.4 33.4 33.4 33.5 33.6 33.6 33.5 33.4 33.7 33.9 33.7 32.8 32.5 32.8 32.8 33.4 33.4 33.1 32.9 32.6 32.3 32.1 31.8 31.6 31.4 31.1 30.9 30.8 30.7 30.6 30.5 30.2 30.0 29.7 29.6 29.3
36.2 36.7 37.0 37.2 37.4 37.7 37.7 38.0 38.6 39.1 39.1 39.2 39.2 39.2 39.2 39.1 39.1 39.2 39.3 39.3 39.4 39.4 39.5 39.6 39.3 39.5 39.3 38.8 38.4 38.2 38.0 38.2 38.0 37.7 37.3 36.7 36.4 36.0 35.7 35.6 35.5 35.3 35.2 35.2 34.9 34.5 34.2 34.2 34.2 34.1 33.9 33.7 33.7 33.8 33.8 33.8 33.8 33.8 34.0 33.4 32.4 32.7 32.9 33.2 33.3 33.1 33.2 33.1 32.9 32.6 32.3 32.1 31.9 31.6 31.3 31.0 30.9 30.8 30.7 30.6 30.5 30.2 30.0 29.8 29.6
36.1 36.5 36.8 37.1 37.4 37.6 38.0 38.7 39.0 39.2 39.3 39.4 39.4 39.5 39.4 39.3 39.2 39.3 39.4 39.5 39.5 39.5 39.5 39.6 39.7 39.7 39.5 39.4 38.4 38.5 38.5 38.5 38.1 37.7 37.4 37.2 36.9 36.6 36.3 36.2 36.0 35.7 35.6 35.5 35.2 34.8 34.5 34.4 34.5 34.5 34.5 34.3 34.2 34.2 34.3 34.1 34.0 33.3 32.4 32.1 32.4 32.8 33.0 33.2 33.4 33.3 32.9 33.1 33.0 32.8 32.6 32.4 32.1 31.9 31.6 31.3 31.1 30.9 30.8 30.7 30.6 30.5 30.2 30.0 29.7